Wind_Speed
25 25 25 26 26 26 24 22 22 22 22 22 22 22 21 20 20 20 19 19 19 19 19 19 19 19 19 19 18 18 18 18 18 18 17 17 17 16 16 16 15 15 14 14 14 13 13 12 12
25 26 27 27 28 26 25 23 23 22 22 22 23 23 23 23 22 22 21 20 20 20 20 20 20 20 20 20 20 20 19 19 20 19 19 18 18 18 18 18 17 17 16 16 15 15 15 14 14
26 27 27 28 28 27 25 25 24 24 23 23 23 24 24 24 24 23 23 22 22 22 21 21 21 21 21 21 21 21 20 20 21 21 20 19 20 20 19 19 19 18 18 17 17 17 17 16 16
27 28 28 29 28 27 27 27 26 25 25 24 25 25 25 25 25 24 24 24 24 23 23 22 23 22 22 22 22 22 22 22 22 22 21 21 20 20 20 20 20 20 19 19 18 18 18 18 18
29 29 30 29 28 28 28 28 28 27 27 26 26 26 26 26 26 26 26 25 25 25 24 24 24 24 24 24 24 24 24 23 23 23 23 22 22 22 22 21 21 21 21 21 20 20 20 19 19
30 31 31 30 29 28 29 30 29 29 28 28 28 28 28 28 28 27 27 26 27 26 26 26 25 25 25 25 25 25 25 25 25 24 24 24 24 23 23 23 23 23 23 23 23 22 22 22 21
32 33 33 32 31 30 30 31 31 30 30 30 30 30 29 29 29 29 28 28 28 28 28 27 27 26 26 27 27 27 27 26 26 25 26 26 25 25 24 24 23 24 24 24 24 24 23 23 23
33 34 33 33 33 33 32 32 31 31 31 31 31 31 31 30 30 30 30 30 30 29 29 28 28 28 28 28 28 28 28 28 27 27 27 27 27 27 26 25 24 24 24 24 24 25 25 25 25
34 35 33 32 33 34 33 33 33 32 32 32 32 33 32 31 31 32 31 31 31 31 30 29 29 29 29 29 30 30 29 30 29 29 29 29 29 29 29 27 26 25 24 25 25 25 26 26 26
34 35 34 33 34 34 34 34 34 33 33 32 33 33 32 32 32 32 32 32 32 31 30 30 30 30 30 30 30 31 31 31 31 31 30 31 31 31 31 30 28 27 27 26 26 26 27 27 27
35 35 34 35 35 36 36 35 35 35 34 34 34 33 33 32 32 33 33 33 33 32 32 31 31 31 31 31 32 32 32 32 31 32 32 32 32 32 33 31 30 30 29 28 28 27 28 28 28
35 35 35 36 37 37 37 36 36 35 34 35 35 35 34 33 33 33 34 34 34 34 33 33 32 32 32 32 32 33 33 33 32 32 32 32 32 33 33 33 33 32 31 30 29 29 29 29 29
35 35 36 37 38 38 38 38 38 36 36 36 36 35 34 34 33 34 34 35 35 35 35 34 34 34 34 33 33 33 33 33 33 32 32 33 33 33 34 35 34 34 33 32 31 30 31 31 30
35 36 37 38 39 39 39 38 39 37 37 37 37 36 36 35 35 35 35 36 36 36 35 35 35 35 35 34 34 34 33 33 33 33 33 33 33 34 34 35 35 35 35 35 34 33 33 33 32
36 37 37 38 39 40 41 40 39 38 38 38 38 38 37 36 36 36 36 37 37 36 36 36 36 35 35 35 34 34 33 32 32 32 33 33 34 34 34 34 34 34 35 35 34 33 33 33 33
36 37 38 38 40 40 42 41 39 39 39 39 39 38 38 37 37 37 37 37 37 37 36 35 35 35 35 35 35 35 35 34 34 33 33 34 34 34 34 34 34 34 34 34 35 34 34 33 34
36 37 37 37 39 40 41 41 39 39 39 39 39 39 39 39 38 37 37 37 37 37 36 36 35 35 35 35 36 36 36 35 34 34 34 34 35 35 34 34 34 34 34 35 36 36 35 34 34
35 36 36 37 38 40 41 40 39 39 39 39 40 40 40 39 39 38 38 38 38 37 37 36 35 35 35 35 35 35 36 35 35 35 35 34 34 35 35 35 36 35 36 36 37 36 36 36 35
37 37 37 37 38 40 40 40 39 39 40 40 40 41 40 40 39 39 39 39 38 38 38 37 36 36 36 36 36 35 36 36 36 36 36 35 35 35 35 36 36 36 36 37 37 37 37 37 36
36 37 38 38 38 40 40 40 39 39 39 40 41 41 41 40 40 39 39 39 39 38 38 38 37 36 36 37 37 36 36 36 37 37 37 37 37 36 35 36 36 36 36 37 37 37 38 37 37
34 34 35 37 37 38 39 40 38 38 38 39 40 40 40 39 39 39 39 39 39 38 37 37 37 37 37 37 37 37 37 36 37 38 38 38 38 38 38 36 36 36 37 37 37 37 38 37 37
33 32 33 34 36 37 37 38 36 35 36 37 38 38 38 38 39 39 39 39 39 39 38 37 37 37 37 38 38 38 37 37 37 38 38 38 38 39 38 38 38 37 37 37 37 37 37 37 37
30 30 30 30 32 35 35 37 36 34 34 34 35 36 36 36 37 37 37 37 37 37 38 37 37 36 36 37 38 38 38 37 37 37 38 38 39 38 38 38 38 38 38 37 38 38 38 38 38
28 28 29 29 30 32 31 34 34 32 32 32 32 33 34 34 35 36 36 37 37 37 36 36 36 36 36 36 37 38 38 38 38 38 38 38 39 39 39 38 38 39 39 39 38 39 38 39 39
26 26 28 29 30 30 28 31 30 28 30 31 31 32 33 33 33 34 34 35 36 36 35 36 35 36 35 36 37 38 38 37 37 38 38 38 39 40 40 40 39 39 39 40 40 39 39 39 40
27 26 27 28 28 28 28 28 26 26 27 29 30 30 31 32 32 33 34 34 34 35 35 35 36 36 36 37 38 38 38 38 38 38 38 39 39 39 40 40 41 40 40 41 41 41 40 40 40
26 26 26 27 28 28 27 26 24 24 25 27 28 29 29 30 30 31 33 33 33 34 34 34 35 35 35 36 37 38 38 38 38 39 39 39 39 40 40 41 41 41 41 41 41 41 40 40 40
26 24 24 26 26 27 27 25 23 22 23 25 26 26 27 28 29 29 30 31 32 33 34 34 35 35 35 36 37 37 38 38 39 40 40 40 40 40 41 41 41 41 41 41 41 41 41 41 41
25 24 24 24 25 25 26 25 23 22 23 24 25 26 27 27 28 28 29 30 31 32 33 33 34 34 35 35 36 37 38 39 39 39 39 40 40 40 41 41 42 42 41 41 41 41 41 41 41
26 25 24 25 25 25 25 24 24 24 23 24 25 25 26 27 28 28 29 29 30 31 32 33 34 35 35 36 36 37 37 38 39 39 40 40 41 40 40 41 41 42 42 41 41 42 41 41 42
Wind_Direction
244 244 244 244 244 245 245 246 246 246 246 246 246 247 246 246 246 247 248 248 248 248 248 249 248 246 246 245 243 242 242 240 238 237 238 240 241 240 239 241 243 246 249 249 249 251 253 255 258
244 244 244 244 245 246 246 246 246 246 247 247 247 247 247 246 247 248 248 249 249 249 249 249 249 248 247 247 246 243 243 242 241 239 240 242 242 243 243 242 244 247 248 249 251 253 255 257 258
245 244 244 244 245 246 246 245 246 247 247 247 247 247 247 247 248 248 248 249 250 250 250 249 249 249 249 248 248 247 244 244 243 242 241 242 243 243 244 244 246 247 247 250 252 254 256 258 259
246 245 245 245 246 246 246 246 246 246 247 248 249 248 248 248 248 248 248 250 250 251 251 250 250 250 250 249 249 248 247 246 244 243 241 242 243 244 244 245 247 249 250 251 253 255 256 258 260
247 247 247 247 247 246 246 246 246 247 248 249 250 250 249 248 248 248 248 249 250 251 251 251 250 250 250 249 249 249 248 247 246 245 243 243 244 245 246 247 249 250 251 253 254 256 257 259 260
248 248 248 248 248 247 246 247 247 248 249 249 250 251 250 249 249 249 248 248 249 250 251 252 251 250 250 250 249 249 249 248 247 246 245 244 245 246 247 248 250 250 253 254 255 255 258 260 261
249 249 249 250 249 248 248 248 248 249 249 250 251 250 250 250 249 249 249 248 248 249 251 252 252 251 251 251 250 250 249 249 248 246 246 246 247 247 248 250 251 252 252 254 254 256 259 260 261
250 250 250 250 250 249 249 248 248 249 250 250 250 251 250 250 250 249 249 249 249 249 250 251 251 252 251 250 250 250 250 250 248 245 246 246 247 247 248 250 251 251 252 253 254 256 259 261 263
251 250 249 250 250 249 249 249 249 250 251 251 250 251 251 251 250 250 250 250 250 249 250 251 251 251 252 251 250 249 249 249 248 247 246 246 247 248 250 252 252 251 252 255 256 257 260 261 263
251 251 250 249 250 250 249 248 249 250 251 250 250 250 250 250 249 249 249 249 249 249 249 250 250 251 252 251 250 249 249 249 249 249 248 249 249 250 252 252 252 252 254 256 258 259 261 262 264
252 252 251 250 250 250 249 249 249 250 250 250 250 249 250 250 249 249 249 249 249 249 249 250 250 251 252 252 250 250 249 249 250 250 250 250 250 250 251 252 253 254 256 257 258 260 262 263 263
252 252 251 250 250 250 250 249 249 249 250 249 249 249 250 251 249 249 249 249 249 249 249 250 249 250 251 252 251 250 250 250 250 250 250 250 251 251 253 252 254 255 256 258 259 261 262 262 263
254 253 252 251 251 251 251 250 249 249 248 248 249 249 249 250 250 249 249 249 249 249 250 250 250 250 250 251 251 250 250 250 249 250 250 250 251 253 255 255 257 257 258 259 260 262 262 262 264
255 254 254 253 252 251 251 249 250 249 248 248 249 249 249 250 250 250 249 249 249 249 250 249 249 249 250 250 251 251 251 250 250 251 251 251 252 254 256 257 257 257 258 260 261 262 262 262 264
257 256 255 254 253 251 251 250 249 250 249 248 249 249 249 249 250 250 249 249 249 249 249 249 249 248 249 250 251 250 250 251 251 252 252 252 253 255 256 257 258 258 258 260 261 261 262 263 264
258 257 256 255 253 252 252 251 249 250 249 248 249 249 249 249 249 250 249 249 248 248 248 248 249 249 250 250 250 251 251 252 252 253 254 252 253 255 257 257 256 257 258 260 260 262 262 264 265
258 259 258 257 255 253 252 251 250 250 250 248 248 248 248 248 248 249 248 247 248 249 249 249 249 250 250 250 250 250 250 252 253 253 255 255 254 255 256 256 255 256 258 259 261 262 262 265 266
259 259 258 257 256 254 252 251 250 250 250 249 247 247 248 247 247 247 246 246 247 248 248 248 249 249 249 250 250 250 251 251 252 253 255 256 255 255 255 255 255 256 258 259 261 263 264 266 266
259 259 258 257 257 256 255 253 252 251 251 249 248 247 247 247 247 245 245 246 247 248 248 247 248 248 249 249 250 251 251 251 252 252 253 256 256 255 255 256 256 257 259 260 262 264 265 266 267
259 260 258 258 258 258 257 255 254 252 252 251 250 248 247 246 246 245 245 245 246 247 247 247 247 247 248 249 250 250 250 251 252 252 253 254 256 256 256 255 256 258 260 262 262 264 265 267 269
258 261 260 260 259 258 259 256 254 253 253 252 250 249 247 246 245 244 244 244 245 245 246 246 247 247 248 248 249 249 249 251 252 252 253 254 254 255 255 255 257 259 261 262 262 264 267 268 270
258 260 261 260 260 259 259 260 254 253 252 252 250 248 246 245 244 243 243 243 245 245 245 245 246 248 248 248 247 248 249 251 252 252 253 253 255 256 256 257 258 259 260 261 262 263 266 268 270
259 259 261 262 262 262 260 261 257 255 253 251 249 247 245 244 243 242 241 242 244 245 246 246 247 248 249 248 248 248 248 250 252 252 253 254 255 256 257 258 258 259 259 260 261 263 265 268 271
258 259 261 262 263 264 263 262 259 255 252 251 248 246 244 244 243 242 241 241 242 244 245 246 248 249 250 249 248 248 249 250 251 252 253 254 256 257 258 258 258 259 260 262 263 264 266 268 270
257 259 262 263 264 265 263 261 260 256 253 252 250 247 245 245 244 242 241 241 241 244 245 246 248 249 249 250 249 249 250 250 252 253 254 255 256 258 258 258 259 260 261 262 264 266 267 268 270
256 257 260 262 265 265 263 260 259 257 253 251 250 249 247 246 246 244 242 242 243 244 245 247 249 249 249 250 249 249 250 251 252 254 255 255 256 257 258 259 260 261 262 264 265 266 268 270 272
257 257 260 263 264 265 264 259 258 255 252 250 248 248 248 248 247 246 245 244 244 244 244 247 248 249 249 250 249 249 250 251 253 255 256 256 256 257 258 259 261 262 263 264 265 267 269 272 274
259 259 259 260 262 265 265 260 257 253 250 248 245 247 249 250 248 246 246 246 245 245 245 246 248 249 249 249 249 250 251 252 254 257 257 256 257 258 258 259 261 262 262 265 266 267 269 271 274
258 257 258 260 260 263 264 261 255 254 251 249 246 247 248 249 248 247 246 245 245 246 248 249 251 251 251 250 250 252 253 254 255 257 257 257 257 258 259 259 260 262 263 264 265 267 269 271 273
257 256 257 259 261 262 262 259 254 255 255 252 249 247 247 248 248 249 248 248 248 249 251 252 253 253 253 253 252 253 254 255 256 257 257 258 258 259 260 260 261 262 263 264 266 267 268 271 273
Height
5814 5815 5816 5818 5819 5820 5821 5823 5824 5826 5827 5828 5829 5830 5831 5833 5834 5836 5835 5835 5835 5836 5837 5838 5839 5840 5841 5841 5842 5843 5844 5844 5845 5846 5847 5848 5849 5849 5850 5851 5852 5852 5852 5853 5853 5854 5854 5854 5855
5808 5810 5811 5812 5813 5815 5817 5819 5820 5821 5822 5823 5824 5825 5826 5828 5829 5830 5830 5831 5832 5832 5833 5834 5835 5836 5837 5838 5838 5839 5840 5841 5842 5843 5844 5845 5846 5846 5847 5848 5849 5849 5850 5850 5850 5851 5851 5851 5852
5803 5804 5805 5806 5807 5810 5813 5814 5815 5816 5817 5819 5819 5820 5822 5823 5824 5825 5826 5827 5827 5828 5829 5830 5831 5832 5833 5834 5834 5835 5836 5837 5838 5839 5840 5841 5842 5843 5844 5844 5845 5846 5846 5847 5847 5848 5848 5848 5848
5797 5798 5799 5801 5802 5805 5807 5809 5810 5811 5812 5813 5814 5815 5817 5819 5820 5821 5821 5822 5823 5824 5825 5826 5826 5827 5828 5829 5830 5831 5832 5833 5834 5836 5837 5837 5838 5839 5840 5841 5841 5842 5843 5843 5844 5844 5844 5845 5845
5791 5791 5792 5794 5797 5800 5801 5802 5804 5805 5807 5808 5809 5810 5811 5813 5814 5815 5816 5817 5818 5819 5820 5821 5822 5822 5823 5824 5825 5826 5827 5829 5830 5831 5832 5833 5834 5835 5836 5837 5837 5838 5839 5839 5840 5840 5841 5841 5841
5784 5785 5786 5788 5791 5793 5795 5796 5797 5799 5801 5802 5803 5804 5806 5807 5808 5809 5811 5812 5813 5814 5815 5816 5817 5817 5818 5819 5820 5821 5822 5824 5825 5826 5828 5829 5829 5830 5831 5832 5833 5833 5834 5835 5835 5836 5836 5836 5837
5777 5778 5779 5782 5785 5787 5789 5789 5791 5792 5794 5796 5796 5798 5799 5801 5802 5804 5805 5806 5807 5808 5809 5810 5811 5812 5813 5814 5815 5816 5817 5819 5820 5821 5823 5824 5825 5826 5826 5827 5828 5828 5829 5830 5830 5831 5831 5832 5832
5769 5771 5772 5775 5777 5780 5781 5782 5784 5785 5787 5788 5789 5791 5793 5795 5796 5797 5799 5800 5801 5802 5803 5804 5805 5806 5807 5808 5809 5810 5812 5813 5814 5816 5817 5819 5820 5820 5821 5822 5823 5823 5824 5824 5825 5826 5826 5827 5827
5760 5763 5765 5768 5769 5772 5773 5774 5776 5778 5779 5781 5782 5784 5786 5787 5789 5790 5792 5793 5795 5796 5797 5798 5799 5800 5801 5802 5803 5804 5806 5807 5808 5810 5811 5813 5814 5815 5815 5817 5817 5818 5819 5819 5820 5820 5821 5821 5822
5752 5754 5758 5760 5761 5762 5764 5766 5768 5770 5772 5773 5775 5777 5778 5780 5782 5783 5785 5787 5788 5789 5791 5792 5793 5794 5795 5796 5797 5798 5799 5801 5802 5804 5805 5807 5808 5809 5810 5811 5812 5812 5813 5814 5814 5815 5815 5815 5816
5743 5747 5750 5751 5752 5753 5755 5757 5759 5761 5764 5766 5767 5769 5771 5772 5774 5776 5778 5779 5781 5782 5784 5785 5786 5787 5788 5789 5790 5791 5793 5794 5796 5797 5799 5800 5801 5803 5804 5805 5806 5806 5807 5807 5808 5809 5809 5809 5810
5735 5738 5740 5742 5743 5744 5746 5748 5751 5753 5756 5757 5759 5761 5763 5765 5767 5768 5770 5772 5773 5775 5776 5778 5779 5780 5781 5782 5784 5785 5786 5788 5789 5791 5792 5794 5795 5796 5797 5798 5799 5800 5800 5801 5802 5803 5803 5803 5804
5727 5729 5730 5732 5733 5735 5737 5739 5741 5745 5747 5748 5750 5752 5754 5757 5759 5760 5762 5764 5765 5767 5768 5770 5771 5773 5774 5775 5776 5778 5779 5781 5782 5784 5785 5787 5788 5789 5790 5791 5792 5793 5793 5794 5795 5796 5796 5797 5797
5718 5720 5721 5722 5724 5725 5727 5730 5732 5736 5737 5739 5741 5744 5746 5748 5750 5752 5753 5755 5757 5759 5761 5762 5764 5765 5766 5768 5769 5770 5772 5773 5775 5776 5778 5779 5780 5781 5782 5783 5785 5786 5787 5787 5788 5789 5790 5790 5790
5708 5710 5711 5713 5713 5715 5717 5720 5724 5726 5727 5730 5732 5734 5736 5739 5741 5743 5745 5747 5749 5751 5752 5754 5755 5757 5758 5760 5761 5762 5764 5766 5767 5769 5770 5771 5773 5774 5775 5776 5777 5778 5779 5780 5781 5781 5782 5782 5783
5698 5699 5701 5704 5703 5705 5707 5711 5715 5715 5717 5719 5722 5725 5727 5730 5732 5734 5736 5738 5740 5742 5744 5745 5747 5748 5750 5752 5753 5754 5756 5758 5760 5761 5762 5763 5765 5766 5767 5768 5770 5771 5772 5773 5774 5774 5775 5775 5775
5688 5689 5691 5693 5693 5694 5696 5700 5704 5705 5706 5709 5712 5714 5717 5720 5722 5724 5726 5729 5731 5733 5735 5737 5738 5740 5742 5743 5745 5746 5748 5750 5752 5753 5754 5755 5756 5758 5759 5760 5762 5763 5764 5765 5766 5767 5767 5767 5767
5679 5680 5681 5683 5683 5683 5686 5690 5693 5694 5696 5699 5701 5704 5706 5710 5712 5714 5716 5719 5721 5724 5726 5728 5730 5731 5733 5735 5736 5738 5740 5742 5743 5745 5746 5747 5748 5750 5751 5752 5753 5755 5756 5757 5758 5758 5759 5759 5759
5669 5669 5671 5673 5673 5673 5675 5679 5683 5684 5686 5689 5691 5693 5696 5699 5701 5704 5707 5709 5712 5714 5717 5719 5721 5723 5725 5726 5728 5730 5732 5734 5735 5737 5738 5739 5741 5742 5743 5744 5745 5747 5748 5749 5749 5750 5750 5750 5751
5659 5659 5661 5662 5663 5663 5665 5668 5672 5674 5676 5678 5680 5683 5685 5688 5691 5694 5697 5700 5702 5705 5707 5710 5712 5714 5716 5718 5720 5722 5724 5725 5727 5728 5730 5731 5732 5734 5735 5736 5737 5738 5740 5740 5741 5741 5742 5742 5742
5649 5650 5651 5652 5653 5653 5654 5657 5662 5664 5665 5667 5669 5671 5674 5677 5681 5684 5687 5689 5692 5695 5697 5700 5703 5704 5706 5708 5710 5712 5714 5716 5718 5720 5721 5723 5724 5725 5726 5728 5729 5730 5731 5731 5732 5733 5734 5734 5733
5640 5641 5641 5642 5643 5644 5645 5645 5652 5653 5655 5657 5659 5661 5664 5667 5670 5673 5676 5679 5682 5685 5687 5690 5693 5695 5697 5699 5701 5703 5706 5708 5710 5711 5712 5714 5715 5717 5718 5719 5720 5721 5722 5723 5724 5724 5725 5724 5724
5631 5632 5633 5634 5634 5635 5637 5636 5641 5643 5645 5647 5649 5651 5654 5656 5659 5663 5666 5669 5672 5675 5678 5680 5683 5685 5687 5690 5692 5694 5696 5698 5700 5702 5703 5705 5706 5708 5709 5710 5711 5712 5713 5714 5714 5715 5715 5715 5715
5624 5625 5625 5626 5626 5627 5629 5628 5630 5634 5636 5638 5640 5642 5644 5647 5650 5653 5656 5659 5662 5665 5668 5671 5674 5676 5678 5680 5682 5685 5687 5689 5690 5692 5694 5696 5697 5698 5699 5700 5701 5702 5703 5704 5705 5705 5706 5706 5706
5617 5618 5619 5618 5618 5620 5621 5620 5623 5626 5627 5629 5631 5633 5636 5638 5641 5644 5646 5650 5653 5656 5659 5662 5664 5667 5669 5671 5673 5675 5677 5679 5681 5683 5685 5686 5688 5689 5690 5691 5692 5693 5694 5695 5695 5696 5696 5696 5696
5610 5611 5612 5612 5612 5612 5613 5613 5617 5618 5619 5621 5623 5625 5627 5629 5632 5634 5637 5640 5644 5647 5650 5653 5655 5657 5659 5661 5664 5666 5668 5670 5672 5673 5675 5677 5678 5679 5680 5681 5682 5683 5684 5685 5686 5686 5686 5686 5686
5603 5604 5605 5605 5604 5605 5605 5607 5610 5611 5612 5613 5615 5616 5618 5621 5623 5626 5628 5631 5635 5638 5641 5643 5646 5648 5650 5652 5654 5656 5658 5660 5662 5664 5665 5667 5668 5670 5671 5672 5673 5674 5675 5675 5676 5676 5677 5676 5676
5597 5597 5598 5598 5598 5598 5599 5601 5603 5604 5605 5606 5607 5609 5611 5613 5615 5618 5620 5623 5626 5628 5631 5634 5636 5638 5640 5642 5644 5647 5649 5651 5652 5654 5655 5657 5658 5660 5661 5662 5663 5664 5664 5665 5666 5666 5667 5667 5666
5591 5591 5591 5591 5591 5592 5592 5597 5596 5597 5597 5599 5600 5602 5604 5606 5608 5610 5613 5615 5617 5620 5622 5625 5627 5629 5631 5632 5635 5637 5639 5641 5642 5644 5645 5647 5648 5649 5650 5652 5653 5654 5654 5655 5656 5656 5656 5656 5656
5583 5584 5584 5585 5585 5585 5585 5591 5590 5590 5590 5591 5593 5595 5596 5598 5601 5603 5605 5607 5609 5611 5614 5616 5618 5619 5621 5623 5625 5627 5629 5630 5632 5634 5635 5637 5638 5639 5640 5642 5643 5643 5644 5645 5645 5646 5646 5646 5645